| time (UTC) | temp F | wind direction | speed MPH | gust MPH | rain 1hr in | rain 24hr in | rain mn in | humidity % | barometer mb |
| 20260507183119 | 61 | 270 | 2.0 | 6.0 | 0.00 | 0.00 | 0.00 | 57 | 1010.9 |
| 20260507181120 | 62 | 315 | 2.0 | 4.0 | 0.00 | 0.00 | 0.00 | 55 | 1010.7 |
| 20260507175119 | 62 | 292 | 4.0 | 7.0 | 0.00 | 0.00 | 0.00 | 55 | 1010.6 |
| 20260507173121 | 63 | 292 | 3.0 | 6.0 | 0.00 | 0.00 | 0.00 | 52 | 1010.6 |
| 20260507171120 | 64 | 0 | 2.0 | 9.0 | 0.00 | 0.00 | 0.00 | 52 | 1010.7 |
| 20260507165120 | 64 | 315 | 5.0 | 10.0 | 0.00 | 0.00 | 0.00 | 50 | 1010.7 |
| 20260507163120 | 63 | 292 | 6.0 | 11.0 | 0.00 | 0.00 | 0.00 | 50 | 1010.7 |
| 20260507161120 | 64 | 270 | 6.0 | 11.0 | 0.00 | 0.00 | 0.00 | 52 | 1010.9 |
| 20260507155120 | 63 | 247 | 6.0 | 11.0 | 0.00 | 0.00 | 0.00 | 50 | 1010.8 |
| 20260507153120 | 63 | 270 | 6.0 | 12.0 | 0.00 | 0.00 | 0.00 | 47 | 1011.0 |
| 20260507151120 | 63 | 270 | 6.0 | 10.0 | 0.00 | 0.00 | 0.00 | 49 | 1011.1 |
| 20260507145121 | 62 | 270 | 7.0 | 11.0 | 0.00 | 0.00 | 0.00 | 54 | 1011.2 |
| 20260507143120 | 63 | 270 | 8.0 | 13.0 | 0.00 | 0.00 | 0.00 | 53 | 1011.3 |
| 20260507141119 | 62 | 292 | 7.0 | 12.0 | 0.00 | 0.00 | 0.00 | 57 | 1011.4 |
| 20260507135121 | 61 | 270 | 9.0 | 14.0 | 0.00 | 0.00 | 0.00 | 62 | 1011.5 |
| 20260507133120 | 61 | 270 | 9.0 | 15.0 | 0.00 | 0.00 | 0.00 | 68 | 1011.6 |
| 20260507131121 | 61 | 247 | 9.0 | 15.0 | 0.00 | 0.00 | 0.00 | 68 | 1011.7 |
| 20260507125119 | 61 | 225 | 9.0 | 16.0 | 0.00 | 0.00 | 0.00 | 71 | 1011.7 |
| 20260507123120 | 61 | 225 | 9.0 | 13.0 | 0.00 | 0.00 | 0.00 | 72 | 1011.7 |
| 20260507121119 | 61 | 247 | 8.0 | 15.0 | 0.00 | 0.00 | 0.00 | 73 | 1011.7 |
| 20260507115119 | 60 | 202 | 7.0 | 13.0 | 0.00 | 0.00 | 0.00 | 75 | 1011.7 |
| 20260507113119 | 61 | 202 | 7.0 | 13.0 | 0.00 | 0.00 | 0.00 | 75 | 1011.8 |
| 20260507111119 | 59 | 225 | 6.0 | 12.0 | 0.00 | 0.00 | 0.00 | 78 | 1011.9 |
| 20260507105119 | 58 | 157 | 3.0 | 8.0 | 0.00 | 0.00 | 0.00 | 78 | 1012.0 |
| 20260507103118 | 58 | 135 | 4.0 | 10.0 | 0.00 | 0.00 | 0.00 | 78 | 1012.1 |
| 20260507101119 | 58 | 202 | 3.0 | 8.0 | 0.00 | 0.00 | 0.00 | 81 | 1012.2 |
| 20260507095119 | 56 | 157 | 5.0 | 9.0 | 0.00 | 0.00 | 0.00 | 81 | 1012.1 |
| 20260507093119 | 56 | 180 | 4.0 | 8.0 | 0.00 | 0.00 | 0.00 | 82 | 1012.1 |
| 20260507091119 | 56 | 157 | 5.0 | 10.0 | 0.00 | 0.00 | 0.00 | 85 | 1012.1 |
| 20260507085119 | 56 | 135 | 5.0 | 11.0 | 0.00 | 0.00 | 0.00 | 86 | 1012.1 |
| 20260507083120 | 56 | 157 | 5.0 | 10.0 | 0.00 | 0.00 | 0.00 | 88 | 1012.1 |
| 20260507081121 | 56 | 157 | 4.0 | 9.0 | 0.00 | 0.00 | 0.00 | 89 | 1012.1 |
| 20260507075120 | 55 | 157 | 4.0 | 9.0 | 0.00 | 0.00 | 0.00 | 90 | 1012.0 |
| 20260507073120 | 54 | 135 | 4.0 | 8.0 | 0.00 | 0.00 | 0.00 | 90 | 1011.9 |
| 20260507071119 | 52 | 112 | 2.0 | 6.0 | 0.00 | 0.00 | 0.00 | 90 | 1011.8 |
| 20260507065119 | 51 | 90 | 2.0 | 8.0 | 0.00 | 0.00 | 0.00 | 90 | 1011.7 |
| 20260507063127 | 50 | 90 | 2.0 | 6.0 | 0.00 | 0.00 | 0.00 | 90 | 1011.8 |
| 20260507061120 | 50 | 90 | 3.0 | 6.0 | 0.00 | 0.00 | 0.00 | 90 | 1011.8 |
| 20260507055118 | 49 | 90 | 2.0 | 4.0 | 0.00 | 0.00 | 0.00 | 90 | 1011.8 |
| 20260507053118 | 49 | 67 | 3.0 | 7.0 | 0.00 | 0.00 | 0.00 | 89 | 1011.7 |
| 20260507051118 | 48 | 67 | 2.0 | 4.0 | 0.00 | 0.00 | 0.00 | 89 | 1011.6 |
| 20260507045122 | 48 | 67 | 2.0 | 4.0 | 0.00 | 0.00 | 0.00 | 89 | 1011.5 |
| 20260507043111 | 47 | 67 | 2.0 | 4.0 | 0.00 | 0.00 | 0.00 | 89 | 1011.5 |
| 20260507041121 | 46 | 67 | 1.0 | 3.0 | 0.00 | 0.00 | 0.00 | 89 | 1011.6 |
| 20260507035120 | 46 | 0.0 | 0.0 | 0.00 | 0.00 | 0.00 | 88 | 1011.4 | |
| 20260507033119 | 46 | 0.0 | 0.0 | 0.00 | 0.00 | 0.00 | 88 | 1011.4 | |
| 20260507031120 | 46 | 0.0 | 2.0 | 0.00 | 0.00 | 0.00 | 88 | 1011.4 | |
| 20260507025121 | 46 | 67 | 2.0 | 3.0 | 0.00 | 0.00 | 0.00 | 88 | 1011.4 |
| 20260507023121 | 46 | 0.0 | 2.0 | 0.00 | 0.00 | 0.00 | 88 | 1011.5 | |
| 20260507021119 | 47 | 67 | 1.0 | 3.0 | 0.00 | 0.00 | 0.00 | 88 | 1011.5 |
| 20260507015119 | 47 | 67 | 2.0 | 4.0 | 0.00 | 0.00 | 0.00 | 88 | 1011.4 |
| 20260507013120 | 47 | 67 | 1.0 | 2.0 | 0.00 | 0.00 | 0.00 | 87 | 1011.4 |
| 20260507011121 | 47 | 67 | 1.0 | 2.0 | 0.00 | 0.00 | 0.00 | 87 | 1011.4 |
| 20260507005120 | 47 | 67 | 1.0 | 3.0 | 0.00 | 0.00 | 0.00 | 87 | 1011.5 |
| 20260507003120 | 48 | 67 | 1.0 | 2.0 | 0.00 | 0.00 | 0.00 | 87 | 1011.6 |
| 20260507001120 | 48 | 67 | 1.0 | 2.0 | 0.00 | 0.00 | 0.00 | 87 | 1011.7 |
| 20260506235119 | 49 | 67 | 1.0 | 2.0 | 0.00 | 0.00 | 0.00 | 86 | 1011.7 |
| 20260506233120 | 49 | 67 | 1.0 | 3.0 | 0.00 | 0.00 | 0.00 | 86 | 1011.7 |
| 20260506231119 | 50 | 67 | 1.0 | 2.0 | 0.00 | 0.00 | 0.00 | 86 | 1011.7 |
| 20260506225119 | 51 | 67 | 1.0 | 3.0 | 0.00 | 0.00 | 0.00 | 86 | 1011.7 |
| 20260506223117 | 51 | 0.0 | 2.0 | 0.00 | 0.00 | 0.00 | 86 | 1011.7 | |
| 20260506221117 | 51 | 67 | 1.0 | 3.0 | 0.00 | 0.00 | 0.00 | 86 | 1011.8 |
| 20260506215117 | 52 | 0.0 | 2.0 | 0.00 | 0.00 | 0.00 | 85 | 1011.9 | |
| 20260506213117 | 52 | 67 | 1.0 | 2.0 | 0.00 | 0.00 | 0.00 | 85 | 1011.8 |
| 20260506211117 | 53 | 0.0 | 2.0 | 0.00 | 0.00 | 0.00 | 85 | 1011.8 | |
| 20260506205117 | 53 | 67 | 1.0 | 3.0 | 0.00 | 0.00 | 0.00 | 85 | 1011.7 |
| 20260506203117 | 53 | 67 | 1.0 | 3.0 | 0.00 | 0.00 | 0.00 | 84 | 1011.5 |
| 20260506201117 | 53 | 67 | 1.0 | 3.0 | 0.00 | 0.00 | 0.00 | 84 | 1011.4 |
| 20260506195117 | 54 | 67 | 1.0 | 3.0 | 0.00 | 0.00 | 0.00 | 84 | 1011.2 |
| 20260506193117 | 54 | 67 | 1.0 | 3.0 | 0.00 | 0.01 | 0.00 | 84 | 1011.1 |
| 20260506191117 | 54 | 67 | 2.0 | 4.0 | 0.00 | 0.01 | 0.00 | 83 | 1011.0 |
| 20260506185117 | 55 | 67 | 3.0 | 8.0 | 0.00 | 0.01 | 0.00 | 83 | 1010.9 |